"Pseudo-MPEC" for P10PJKm

Created 2019 Jul 23 14:07:05 UT using Find_Orb

Click here for an explanation of pseudo-MPECs

 
 Astrometry: 
     P10PJKm  C2019 07 07yb9YRL5$\cxaQ.Wtb*e-ATfaIZ:]=Astrometry7YZ+82W(j:kh!F51
     P10PJKm  C2019 07 07vv2p8[7ifR9lPredacted;dA_DLR0*ZxKByGs1q1',erv,JclickF51
     P10PJKm  C2019 07 07i,p?gZ`XgXBq8vo=?H835#nBCfrO6;5,4AN]S;;vf.Lhere5%k]xF51
     P10PJKm  C2019 07 07]Jg;c^*[g@P'dYfor9U.1+usX0yexplanation#Hward7N:Ac':]F51

Station data:
(F51) Pan-STARRS 1, Haleakala  (N20.707235 W156.255910)  US/Hawaii.
   Observers N. Primak, A. Schultz, S. Watters, J. Thiel, T. Goggia. Measurer
   PS1 Science Consortium. 1.8-m Ritchey-Chrétien + CCD.

Orbital elements:  P10PJKm
   Perihelion 2019 Jun 13.446972 +/- 63.4 TT = 10:43:38 (JD 2458647.946972)
Epoch 2019 Jul  8.0 TT = JDT 2458672.5   Earth MOID: 0.0056   Ma: 0.0774
M  17.08622117 +/- 58               (J2000 ecliptic)          AutoNEOCP
n   0.69589058 +/- 0.36             Peri.  153.28792 +/- 60
a   1.26117515 +/- 0.434            Node   106.49863 +/- 0.7
e   0.2018818 +/- 0.252             Incl.    3.93350 +/- 11
P   1.42/517.31d           H 28.6   G  0.15   U 12.1  SR
q 1.00656676 +/- 0.0633    Q 1.51578355 +/- 2.16
From 4 observations 2019 July 7 (51.6 min); mean residual 0".38
Residuals in arcseconds: 
190707 F51  .12-  .36+    190707 F51  .15+  .79-    
190707 F51  .11+  .14-    190707 F51  .14-  .57+    

Ephemerides (geocentric):
Date (UTC) HH   RA              Dec         delta   r     elong  mag " sig PA
---- -- -- --  -------------   -----------  ------ ------ -----  --- ---- ---
2019 07 23 14  23 03 15.880   -32 22 50.43  .04557 1.0510 139.5 23.6  41d  26
2019 07 23 15  23 03 16.581   -32 23 45.90  .04567 1.0511 139.5 23.6  41d  26
2019 07 23 16  23 03 17.268   -32 24 41.12  .04577 1.0512 139.5 23.6  41d  25
2019 07 23 17  23 03 17.941   -32 25 36.10  .04587 1.0513 139.5 23.6  41d  25
2019 07 23 18  23 03 18.599   -32 26 30.83  .04597 1.0514 139.6 23.6  41d  25
2019 07 23 19  23 03 19.244   -32 27 25.32  .04606 1.0514 139.6 23.6  41d  25
2019 07 23 20  23 03 19.874   -32 28 19.56  .04616 1.0515 139.6 23.6  41d  25
2019 07 23 21  23 03 20.490   -32 29 13.56  .04626 1.0516 139.6 23.6  41d  25
2019 07 23 22  23 03 21.092   -32 30 07.32  .04636 1.0517 139.7 23.6  41d  25
2019 07 23 23  23 03 21.681   -32 31 00.84  .04646 1.0518 139.7 23.6  41d  25
2019 07 24 00  23 03 22.255   -32 31 54.13  .04656 1.0519 139.7 23.6  41d  25
2019 07 24 01  23 03 22.816   -32 32 47.17  .04665 1.0520 139.7 23.6  41d  25
2019 07 24 02  23 03 23.363   -32 33 39.99  .04675 1.0520 139.8 23.6  41d  25
2019 07 24 03  23 03 23.896   -32 34 32.57  .04685 1.0521 139.8 23.6  41d  24
2019 07 24 04  23 03 24.416   -32 35 24.91  .04695 1.0522 139.8 23.6  41d  24
2019 07 24 05  23 03 24.922   -32 36 17.03  .04705 1.0523 139.9 23.6  41d  24
2019 07 24 06  23 03 25.414   -32 37 08.92  .04714 1.0524 139.9 23.6  41d  24
2019 07 24 07  23 03 25.893   -32 38 00.57  .04724 1.0525 139.9 23.6  41d  24
2019 07 24 08  23 03 26.359   -32 38 52.00  .04734 1.0526 139.9 23.6  41d  24
2019 07 24 09  23 03 26.811   -32 39 43.21  .04744 1.0527 140.0 23.6  41d  24
2019 07 24 10  23 03 27.250   -32 40 34.18  .04754 1.0527 140.0 23.6  41d  24
2019 07 24 11  23 03 27.676   -32 41 24.94  .04764 1.0528 140.0 23.6  40d  24
2019 07 24 12  23 03 28.088   -32 42 15.47  .04773 1.0529 140.0 23.6  40d  24
2019 07 24 13  23 03 28.487   -32 43 05.78  .04783 1.0530 140.1 23.7  40d  23
2019 07 24 14  23 03 28.873   -32 43 55.87  .04793 1.0531 140.1 23.7  40d  23
2019 07 24 15  23 03 29.246   -32 44 45.74  .04803 1.0532 140.1 23.7  40d  23
2019 07 24 16  23 03 29.606   -32 45 35.39  .04813 1.0533 140.2 23.7  40d  23
2019 07 24 17  23 03 29.954   -32 46 24.83  .04823 1.0534 140.2 23.7  40d  23
2019 07 24 18  23 03 30.288   -32 47 14.05  .04833 1.0534 140.2 23.7  40d  23
2019 07 24 19  23 03 30.609   -32 48 03.06  .04842 1.0535 140.2 23.7  40d  23
2019 07 24 20  23 03 30.918   -32 48 51.85  .04852 1.0536 140.3 23.7  40d  22
2019 07 24 21  23 03 31.213   -32 49 40.43  .04862 1.0537 140.3 23.7  40d  22
2019 07 24 22  23 03 31.496   -32 50 28.80  .04872 1.0538 140.3 23.7  40d  22
2019 07 24 23  23 03 31.767   -32 51 16.96  .04882 1.0539 140.3 23.7  40d  22
2019 07 25 00  23 03 32.024   -32 52 04.90  .04892 1.0540 140.4 23.7  40d  22
2019 07 25 01  23 03 32.269   -32 52 52.65  .04902 1.0541 140.4 23.7  40d  21
2019 07 25 02  23 03 32.502   -32 53 40.18  .04911 1.0542 140.4 23.7  39d  21
2019 07 25 03  23 03 32.722   -32 54 27.51  .04921 1.0542 140.5 23.7  39d  20
2019 07 25 04  23 03 32.930   -32 55 14.63  .04931 1.0543 140.5 23.7  40d  18
2019 07 25 05  23 03 33.125   -32 56 01.55  .04941 1.0544 140.5 23.7  44d   6
2019 07 25 06  23 03 33.308   -32 56 48.27  .04951 1.0545 140.5 23.7  53d  26
2019 07 25 07  23 03 33.479   -32 57 34.78  .04961 1.0546 140.6 23.7  50d  27
2019 07 25 08  23 03 33.637   -32 58 21.09  .04971 1.0547 140.6 23.7  48d  27
2019 07 25 09  23 03 33.783   -32 59 07.21  .04981 1.0548 140.6 23.7  47d  27
2019 07 25 10  23 03 33.918   -32 59 53.12  .04990 1.0549 140.6 23.7  46d  27
2019 07 25 11  23 03 34.040   -33 00 38.84  .05000 1.0550 140.7 23.7  46d  26
2019 07 25 12  23 03 34.149   -33 01 24.36  .05010 1.0550 140.7 23.7  46d  26
2019 07 25 13  23 03 34.247   -33 02 09.68  .05020 1.0551 140.7 23.7  45d  26